Weather History for PASX - November, 2012

Change the Weather History Date:

Monday, November 12, 2012

  Actual Average Record
Temperature  
Mean Temperature 25 °F -  
Max Temperature 35 °F 30 °F 50 °F (2014)
Min Temperature 15 °F 16 °F -12 °F (1973)
Degree Days  
Heating Degree Days 40    
Moisture  
Dew Point 22 °F    
Average Humidity 91    
Maximum Humidity 100    
Minimum Humidity 79    
Precipitation  
Precipitation 0.00 in - - ()
Sea Level Pressure  
Sea Level Pressure 29.93 in    
Wind  
Wind Speed 3 mph (East)    
Max Wind Speed 6 mph    
Max Gust Speed -    
Visibility 8 miles    
Events      
Averages and records for this station are not official NWS values.
T = Trace of Precipitation, MM = Missing Value Source: NWS Daily Summary

Daily Weather History Graph

Daily Weather History Graph

Search for Another Location

Airport or City:

Trip Planner

Search our weather history database for the weather conditions in past years. The results will help you decide how hot, cold, wet, or windy it might be!

Date:

Astronomy

Nov. 12, 2012 Rise Set
Actual Time 8:59 AM AKST 4:36 PM AKST
Civil Twilight 8:09 AM AKST 5:25 PM AKST
Nautical Twilight 7:17 AM AKST 6:18 PM AKST
Astronomical Twilight 6:28 AM AKST 7:07 PM AKST
Moon 7:26 AM AKST (11/12) 3:54 PM AKST (11/12)
Length of Visible Light 9h 16m
Length of Day
7h 37m
Waning Crescent, 2% of the Moon is Illuminated
Nov 12
Waning Crescent
Nov 13
New
Nov 20
First Quarter
Nov 28
Full
Dec 6
Last Quarter

Hourly Weather History & Observations

Time (AKST) Temp. Windchill Dew Point Humidity Pressure Visibility Wind Dir Wind Speed Gust Speed Precip Events Conditions
12:16 AM 24.8 °F 19.1 °F 23.0 °F 93% 29.79 in 10.0 mi ENE 4.6 mph - N/A   Scattered Clouds
12:36 AM 24.8 °F 20.5 °F 21.2 °F 86% 29.80 in 10.0 mi East 3.5 mph - N/A   Scattered Clouds
12:56 AM 24.8 °F 19.1 °F 21.2 °F 86% 29.80 in 10.0 mi East 4.6 mph - N/A   Mostly Cloudy
1:16 AM 24.8 °F 20.5 °F 23.0 °F 93% 29.80 in 10.0 mi East 3.5 mph - N/A   Overcast
1:36 AM 24.8 °F 19.1 °F 23.0 °F 93% 29.81 in 10.0 mi East 4.6 mph - N/A   Mostly Cloudy
1:56 AM 24.8 °F 20.5 °F 21.2 °F 86% 29.81 in 10.0 mi East 3.5 mph - N/A   Partly Cloudy
2:16 AM 24.8 °F 20.5 °F 23.0 °F 93% 29.82 in 10.0 mi East 3.5 mph - N/A   Clear
2:56 AM 24.8 °F 20.5 °F 23.0 °F 93% 29.83 in 10.0 mi ENE 3.5 mph - N/A   Clear
3:16 AM 24.8 °F 20.5 °F 21.2 °F 86% 29.83 in 10.0 mi East 3.5 mph - N/A   Clear
3:36 AM 24.8 °F 20.5 °F 21.2 °F 86% 29.83 in 10.0 mi East 3.5 mph - N/A   Partly Cloudy
3:56 AM 24.8 °F 20.5 °F 21.2 °F 86% 29.83 in 10.0 mi East 3.5 mph - N/A   Scattered Clouds
4:16 AM 24.8 °F 19.1 °F 21.2 °F 86% 29.83 in 10.0 mi East 4.6 mph - N/A   Partly Cloudy
4:36 AM 24.8 °F 19.1 °F 23.0 °F 93% 29.84 in 10.0 mi East 4.6 mph - N/A   Scattered Clouds
4:56 AM 24.8 °F 17.9 °F 23.0 °F 93% 29.83 in 10.0 mi East 5.8 mph - N/A   Overcast
5:16 AM 24.8 °F 20.5 °F 21.2 °F 86% 29.84 in 10.0 mi East 3.5 mph - N/A   Overcast
5:36 AM 23.0 °F 18.4 °F 21.2 °F 93% 29.84 in 10.0 mi ENE 3.5 mph - N/A   Scattered Clouds
5:56 AM 21.2 °F - 19.4 °F 93% 29.85 in 10.0 mi Calm Calm - N/A   Scattered Clouds
6:16 AM 21.2 °F 14.9 °F 19.4 °F 93% 29.85 in 10.0 mi East 4.6 mph - N/A   Overcast
6:36 AM 21.2 °F - 21.2 °F 100% 29.86 in 10.0 mi Calm Calm - N/A   Overcast
6:56 AM 21.2 °F - 17.6 °F 86% 29.86 in 10.0 mi Calm Calm - N/A   Overcast
7:16 AM 19.4 °F - 17.6 °F 93% 29.86 in - Calm Calm - N/A   Unknown
7:36 AM 19.4 °F - 17.6 °F 93% 29.87 in - Calm Calm - N/A   Mostly Cloudy
7:56 AM 21.2 °F 14.9 °F 21.2 °F 100% 29.87 in 10.0 mi NE 4.6 mph - N/A   Overcast
8:16 AM 19.4 °F - 17.6 °F 93% 29.88 in 10.0 mi Calm Calm - N/A   Overcast
8:36 AM 23.0 °F - 21.2 °F 93% 29.89 in 10.0 mi Calm Calm - N/A   Overcast
8:56 AM 21.2 °F - 19.4 °F 93% 29.90 in 10.0 mi Calm Calm - N/A   Overcast
9:16 AM 21.2 °F 16.4 °F 19.4 °F 93% 29.90 in 10.0 mi NNE 3.5 mph - N/A   Overcast
9:36 AM 23.0 °F 18.4 °F 19.4 °F 86% 29.90 in 10.0 mi East 3.5 mph - N/A   Mostly Cloudy
9:56 AM 21.2 °F - 19.4 °F 93% 29.90 in 7.0 mi Calm Calm - N/A   Overcast
10:16 AM 23.0 °F 18.4 °F 21.2 °F 93% 29.91 in 10.0 mi East 3.5 mph - N/A   Overcast
10:36 AM 23.0 °F - 21.2 °F 93% 29.92 in - Calm Calm - N/A   Mostly Cloudy
10:56 AM 24.8 °F 20.5 °F 23.0 °F 93% 29.93 in - East 3.5 mph - N/A   Mostly Cloudy
11:16 AM 24.8 °F 20.5 °F 23.0 °F 93% 29.93 in - East 3.5 mph - N/A   Overcast
11:36 AM 26.6 °F - 24.8 °F 93% 29.94 in 10.0 mi Calm Calm - N/A   Overcast
11:56 AM 28.4 °F - 26.6 °F 93% 29.94 in 10.0 mi Calm Calm - N/A   Overcast
12:16 PM 28.4 °F 24.6 °F 26.6 °F 93% 29.94 in 10.0 mi ENE 3.5 mph - N/A   Overcast
12:36 PM 30.2 °F - 26.6 °F 86% 29.94 in - Calm Calm - N/A   Overcast
12:56 PM 30.2 °F - 28.4 °F 93% 29.95 in - Calm Calm - N/A   Overcast
1:36 PM 32.0 °F - 28.4 °F 87% 29.95 in 10.0 mi Calm Calm - N/A   Overcast
1:56 PM 33.8 °F - 30.2 °F 87% 29.96 in 10.0 mi Calm Calm - N/A   Overcast
2:16 PM 35.6 °F - 30.2 °F 81% 29.95 in 10.0 mi Calm Calm - N/A   Scattered Clouds
2:36 PM 35.6 °F - 30.2 °F 81% 29.96 in 10.0 mi Calm Calm - N/A   Clear
2:56 PM 35.6 °F 31.7 °F 30.2 °F 81% 29.96 in 10.0 mi East 4.6 mph - N/A   Clear
3:16 PM 33.8 °F 30.8 °F 28.4 °F 81% 29.96 in 10.0 mi ESE 3.5 mph - N/A   Clear
3:36 PM 33.8 °F - 28.4 °F 81% 29.96 in 10.0 mi Calm Calm - N/A   Clear
3:56 PM 28.4 °F - 28.4 °F 100% 29.96 in - Calm Calm - N/A   Unknown
4:16 PM 26.6 °F - 24.8 °F 93% 29.97 in - Calm Calm - N/A   Unknown
4:36 PM 28.4 °F - 26.6 °F 93% 29.97 in - Calm Calm - N/A   Unknown
4:56 PM 28.4 °F - 26.6 °F 93% 29.98 in - Calm Calm - N/A   Unknown
5:16 PM 26.6 °F - 24.8 °F 93% 29.99 in - Calm Calm - N/A   Unknown
5:36 PM 24.8 °F 19.1 °F 24.8 °F 100% 29.99 in 10.0 mi East 4.6 mph - N/A   Clear
5:56 PM 26.6 °F - 24.8 °F 93% 29.99 in 10.0 mi Calm Calm - N/A   Clear
6:16 PM 23.0 °F - 21.2 °F 93% 30.00 in - Calm Calm - N/A   Unknown
6:36 PM 21.2 °F - 19.4 °F 93% 30.01 in - Calm Calm - N/A   Unknown
6:56 PM 19.4 °F - 17.6 °F 93% 30.01 in - Calm Calm - N/A   Unknown
7:16 PM 21.2 °F - 17.6 °F 86% 30.01 in - Calm Calm - N/A   Unknown
7:36 PM 17.6 °F - 15.8 °F 93% 30.02 in - Calm Calm - N/A   Unknown
7:56 PM 19.4 °F - 19.4 °F 100% 30.02 in 1.5 mi Calm Calm - N/A   Mostly Cloudy
8:16 PM 17.6 °F - 15.8 °F 93% 30.02 in - Calm Calm - N/A   Overcast
8:36 PM 17.6 °F - 15.8 °F 93% 30.02 in 10.0 mi Calm Calm - N/A   Mostly Cloudy
8:56 PM 15.8 °F 10.2 °F 14.0 °F 93% 30.02 in 10.0 mi NE 3.5 mph - N/A   Partly Cloudy
9:16 PM 15.8 °F - 10.4 °F 79% 30.02 in 0.5 mi Calm Calm - N/A   Overcast
9:36 PM 17.6 °F 12.3 °F 15.8 °F 93% 30.02 in 1.8 mi East 3.5 mph - N/A   Overcast
9:56 PM 19.4 °F 14.3 °F 17.6 °F 93% 30.02 in 0.8 mi East 3.5 mph - N/A   Overcast
10:16 PM 19.4 °F - 17.6 °F 93% 30.03 in 0.5 mi Calm Calm - N/A   Overcast
10:36 PM 19.4 °F - 17.6 °F 93% 30.04 in 1.2 mi Calm Calm - N/A   Overcast
10:56 PM 19.4 °F - 19.4 °F 100% 30.04 in - Calm Calm - N/A   Overcast
11:16 PM 19.4 °F 14.3 °F 17.6 °F 93% 30.04 in 0.2 mi East 3.5 mph - N/A   Overcast
11:36 PM 19.4 °F 14.3 °F 17.6 °F 93% 30.04 in 0.5 mi East 3.5 mph - N/A   Overcast
11:56 PM 19.4 °F 14.3 °F 17.6 °F 93% 30.04 in 0.8 mi East 3.5 mph - N/A   Overcast